Content
SEND FEEDBACK

Daily
Averages
Monthly
Summary
India

LUCKNOW, INDIA


Home > Asia > India
Elevation: 400 feet     Latitude: 26 45N     Longitude: 080 52E

WEATHER
 
SELECT A DAY
Number of Records: 131,793;   Date Range: 7/2/96 - 12/26/14
 
SHARE

PRINT THIS DATA

[ ← Previous Day ]
WEATHER ALMANAC - APRIL 10, 2013
[ Next Day → ]
[ °C ]   °F
Weather ElementAverageHighLow
Temperature87.6 °F100.4 °F (3:00 pm)71.6 °F (6:00 am)
Dewpoint59.7 °F64.4 °F (12:00 pm)55 °F (2:30 am)
Humidity39.1 %65 % (1:00 am)17 % (2:30 pm)
Barometer29.71 in29.78 in (11:30 am)29.65 in (3:00 am)
Wind Speed6.4 mph13.8 mph (1:30 pm)
Weather ElementAverage
Visibility2.6 mi
Wind DirectionWSW (241.5 °)

Weather ElementTotal
Precipitation---
Cooling Degree Days21 (Base 65)
Growing Degree Days36 (Base 50)
Averaged from 39 records on April 10, 2013
WEATHER CONDITIONS BREAKOUT
WIND DIRECTION BREAKOUT
WEATHER BY HOUR - APRIL 10, 2013
[ °C ]   °F
Local TimeTemperatureDewpointHumidityBarometerVisibilityWind DirectionWind SpeedGust SpeedPrecipitationEventsConditions
1:00 AM75.2 °F62.6 °F65 %29.68 in2.2 miCalmHaze
2:00 AM82.4 °F55.4 °F39 %29.68 in2.2 miNNW (340°)5.8 mphHaze
2:30 AM84.0 °F55.0 °F27 %29.68 in1.0 miNNW (340°)4.6 mphHaze
3:00 AM82.4 °F55.4 °F39 %29.65 in2.2 miNNW (340°)4.6 mphHaze
4:00 AM80.6 °F55.4 °F42 %29.68 in2.2 miNorth (10°)4.6 mphHaze
5:30 AM74.0 °F60.0 °F51 %29.71 in1.0 miWest (270°)4.6 mphHaze
5:30 AM75.2 °F59.0 °F57 %29.71 in1.9 miWest (270°)4.6 mphHaze
6:00 AM71.6 °F59.0 °F64 %29.71 in1.9 miWest (270°)3.5 mphHaze
6:30 AM71.6 °F59.0 °F64 %29.71 in1.9 miNW (310°)3.5 mphHaze
7:00 AM73.4 °F60.8 °F65 %29.71 in1.9 miWSW (250°)3.5 mphHaze
8:30 AM86.0 °F59.0 °F30 %29.77 in1.0 miNW (320°)5.8 mphHaze
8:30 AM86.0 °F59.0 °F40 %29.77 in2.2 miNW (320°)5.8 mphHaze
9:00 AM89.6 °F59.0 °F36 %29.77 in2.5 miNNW (330°)10.4 mphHaze
9:30 AM91.4 °F62.6 °F38 %29.77 in2.5 miNNW (340°)9.2 mphHaze
10:00 AM91.4 °F62.6 °F38 %29.77 in2.5 miNNW (340°)9.2 mphHaze
10:30 AM93.2 °F62.6 °F36 %29.77 in2.8 miNNW (340°)8.1 mphHaze
11:30 AM94.0 °F62.0 °F24 %29.78 in2.0 miNW (320°)8.1 mphHaze
11:30 AM95.0 °F60.8 °F32 %29.77 in3.1 miNW (320°)8.1 mphHaze
12:00 PM95.0 °F64.4 °F36 %29.77 in3.1 miNNW (330°)9.2 mphHaze
1:00 PM98.6 °F59.0 °F27 %29.74 in3.1 miNNW (340°)11.5 mphHaze
1:30 PM98.6 °F59.0 °F27 %29.71 in3.1 miNNW (340°)13.8 mphHaze
2:00 PM96.8 °F55.4 °F25 %29.74 in3.7 miNW (310°)6.9 mphMostly Cloudy
2:30 PM99.0 °F58.0 °F17 %29.70 in2.0 miNW (320°)12.7 mphPartly Cloudy
2:30 PM98.6 °F59.0 °F27 %29.71 in3.7 miNNW (330°)12.7 mphMostly Cloudy
3:00 PM100.4 °F57.2 °F24 %29.68 in3.7 miNNW (340°)12.7 mphScattered Clouds
4:00 PM96.8 °F57.2 °F27 %29.68 in3.7 miNorth (350°)10.4 mphScattered Clouds
4:30 PM96.8 °F57.2 °F27 %29.68 in3.7 miNNW (340°)12.7 mphScattered Clouds
5:00 PM95.0 °F57.2 °F28 %29.68 in3.7 miNNW (340°)8.1 mphScattered Clouds
5:30 PM95.0 °F60.8 °F32 %29.68 in3.7 miNW (320°)4.6 mphMostly Cloudy
5:30 PM95.0 °F60.0 °F22 %29.67 in2.0 miNW (320°)4.6 mphPartly Cloudy
6:00 PM93.2 °F60.8 °F34 %29.65 in3.7 miSouth (190°)2.3 mphMostly Cloudy
6:30 PM89.6 °F62.6 °F40 %29.68 in3.7 miSW (220°)2.3 mphMostly Cloudy
7:30 PM86.0 °F62.6 °F45 %29.65 in3.1 miVariable2.3 mphHaze
8:00 PM84.2 °F62.6 °F48 %29.68 in3.1 miVariable2.3 mphHaze
8:30 PM80.6 °F62.6 °F54 %29.68 in3.1 miVariable2.3 mphHaze
9:00 PM80.6 °F62.6 °F54 %29.68 in2.5 miVariable2.3 mphHaze
10:00 PM78.8 °F60.8 °F54 %29.68 in2.5 miVariable2.3 mphHaze
11:00 PM78.8 °F60.8 °F54 %29.68 in2.5 miVariable2.3 mphHaze
11:30 PM82.0 °F59.0 °F35 %29.71 in2.0 miNorth5.8 mphHaze
Hourly data recorded from VILK, located miles away from Lucknow, India







STORIES FROM OUR PARTNERS